FW1241 Weather Reports


Display with metric or nautical units.
time (UTC)temp
F
wind
direction
speed
MPH
gust
MPH
rain 1hr
in
rain 24hr
in
rain mn
in
humidity
%
barometer
mb
20181219135100 48 146 0.0 0.0 0.00 0.01 0.00 96 1026.2
20181219134100 48 146 0.0 0.0 0.00 0.01 0.00 96 1026.3
20181219133600 48 146 0.0 0.0 0.00 0.01 0.00 96 1026.2
20181219133100 48 146 0.0 0.0 0.00 0.01 0.00 96 1026.2
20181219132600 48 146 0.0 0.0 0.00 0.01 0.00 96 1026.2
20181219132100 47 146 0.0 0.0 0.00 0.01 0.00 96 1026.1
20181219131601 48 146 0.0 0.0 0.00 0.01 0.00 96 1026.1
20181219131100 47 146 0.0 0.0 0.00 0.01 0.00 96 1026.1
20181219130600 48 146 0.0 0.0 0.00 0.01 0.00 96 1026.0
20181219130101 48 146 0.0 0.0 0.00 0.01 0.00 96 1026.0
20181219125601 48 146 0.0 0.0 0.00 0.01 0.00 96 1026.0
20181219125100 48 146 0.0 0.0 0.00 0.01 0.00 96 1026.1
20181219124600 48 146 0.0 0.0 0.00 0.01 0.00 96 1026.1
20181219123100 48 146 0.0 0.0 0.00 0.01 0.00 96 1026.3
20181219122600 48 146 0.0 0.0 0.00 0.01 0.00 96 1026.4
20181219122100 48 146 0.0 0.0 0.00 0.01 0.00 96 1026.4
20181219121600 49 146 0.0 0.0 0.00 0.01 0.00 96 1026.5
20181219121101 49 146 0.0 0.0 0.00 0.01 0.00 96 1026.6
20181219120600 49 146 0.0 0.0 0.00 0.01 0.00 96 1026.7
20181219120101 49 146 0.0 0.0 0.00 0.01 0.00 96 1026.7
20181219115600 49 146 0.0 0.0 0.00 0.01 0.00 96 1026.7
20181219115100 49 146 0.0 0.0 0.00 0.01 0.00 96 1026.8
20181219114600 49 146 0.0 0.0 0.00 0.01 0.00 96 1026.8
20181219113600 49 146 0.0 1.0 0.00 0.01 0.00 96 1027.0
20181219112600 49 146 0.0 0.0 0.00 0.01 0.00 96 1027.0
20181219112104 49 145 0.0 0.0 0.00 0.01 0.00 96 1027.2
20181219111602 49 132 0.0 0.0 0.00 0.01 0.00 96 1027.3
20181219111102 49 183 0.0 0.0 0.00 0.01 0.00 96 1027.3
20181219110602 49 173 0.0 1.0 0.00 0.01 0.00 96 1027.4
20181219110100 49 128 0.0 1.0 0.00 0.01 0.00 96 1027.4
20181219105600 49 176 0.0 1.0 0.00 0.01 0.00 96 1027.6
20181219104600 49 287 0.0 0.0 0.00 0.01 0.00 96 1027.7
20181219104101 49 287 0.0 0.0 0.00 0.01 0.00 96 1027.7
20181219103600 48 287 0.0 0.0 0.00 0.01 0.00 96 1027.8
20181219102600 48 287 0.0 0.0 0.00 0.01 0.00 96 1028.0
20181219102101 48 288 0.0 0.0 0.00 0.01 0.00 96 1028.0
20181219101600 48 288 0.0 0.0 0.00 0.01 0.00 96 1028.0
20181219095602 47 288 0.0 0.0 0.00 0.01 0.00 96 1028.0
20181219095100 47 288 0.0 0.0 0.00 0.01 0.00 96 1028.0
20181219094601 47 288 0.0 0.0 0.00 0.01 0.00 96 1028.0
20181219094101 47 288 0.0 0.0 0.00 0.01 0.00 96 1028.0
20181219093600 47 288 0.0 0.0 0.00 0.01 0.00 96 1028.0
20181219093100 47 288 0.0 0.0 0.00 0.01 0.00 96 1027.9
20181219092602 46 288 0.0 0.0 0.00 0.01 0.00 96 1028.0
20181219092101 46 288 0.0 0.0 0.00 0.01 0.00 96 1027.8
20181219091102 46 288 0.0 0.0 0.00 0.01 0.00 95 1027.7
20181219090600 46 288 0.0 5.0 0.00 0.01 0.00 95 1027.7
20181219085100 47 288 0.0 0.0 0.00 0.01 0.00 95 1027.6
20181219084600 47 288 0.0 0.0 0.00 0.01 0.00 95 1027.6
20181219083602 47 288 0.0 0.0 0.00 0.01 0.00 94 1027.6
20181219083100 48 288 0.0 0.0 0.00 0.01 0.00 94 1027.6
20181219082601 48 288 0.0 0.0 0.00 0.01 0.00 95 1027.6
20181219082101 48 288 0.0 0.0 0.00 0.01 0.00 94 1027.6
20181219080600 49 288 0.0 0.0 0.00 0.01 0.00 95 1027.7
20181219075600 49 288 0.0 0.0 0.00 0.01 0.01 95 1027.7
20181219075100 49 288 0.0 0.0 0.00 0.01 0.01 95 1027.8
20181219074600 49 288 0.0 0.0 0.00 0.01 0.01 95 1027.8
20181219074100 49 288 0.0 0.0 0.00 0.01 0.01 95 1027.9
20181219073600 49 288 0.0 0.0 0.00 0.01 0.01 95 1027.9
20181219073100 48 288 0.0 0.0 0.00 0.01 0.01 95 1027.9
20181219072600 48 288 0.0 0.0 0.00 0.01 0.01 95 1027.9
20181219071602 48 288 0.0 0.0 0.00 0.01 0.01 95 1027.8
20181219071102 48 288 0.0 0.0 0.00 0.01 0.01 95 1027.8
20181219070600 48 288 0.0 0.0 0.00 0.01 0.01 95 1027.8
20181219065602 48 288 0.0 0.0 0.00 0.01 0.01 95 1027.6
20181219065100 48 288 0.0 0.0 0.00 0.01 0.01 95 1027.5
20181219064600 48 288 0.0 0.0 0.00 0.01 0.01 95 1027.6
20181219064101 48 288 0.0 0.0 0.00 0.01 0.01 95 1027.5
20181219063600 47 288 0.0 0.0 0.00 0.01 0.01 95 1027.4
20181219063100 47 288 0.0 0.0 0.00 0.01 0.01 95 1027.3
20181219062600 47 288 0.0 0.0 0.00 0.01 0.01 95 1027.4
20181219062100 47 288 0.0 0.0 0.00 0.01 0.01 94 1027.3
20181219060600 48 288 0.0 0.0 0.00 0.01 0.01 94 1027.1
20181219060100 48 288 0.0 0.0 0.00 0.01 0.01 93 1027.0
20181219055600 48 288 0.0 0.0 0.00 0.01 0.01 93 1027.0
20181219054100 49 288 0.0 0.0 0.00 0.01 0.01 93 1026.8
20181219053601 49 288 0.0 0.0 0.00 0.01 0.01 93 1026.9
20181219053100 49 288 0.0 0.0 0.00 0.01 0.01 92 1026.9
20181219052600 49 288 0.0 0.0 0.00 0.01 0.01 92 1026.9
20181219052100 50 288 0.0 0.0 0.00 0.01 0.01 92 1026.9
20181219051600 50 288 0.0 0.0 0.00 0.01 0.01 92 1026.9
20181219050601 51 288 0.0 0.0 0.00 0.01 0.01 92 1026.9
20181219050100 51 288 0.0 0.0 0.00 0.01 0.01 92 1026.8
20181219045600 51 288 0.0 0.0 0.00 0.01 0.01 92 1026.8
20181219045100 51 288 0.0 0.0 0.00 0.01 0.01 92 1026.9
20181219044100 52 288 0.0 0.0 0.00 0.01 0.01 92 1026.9
20181219043601 52 288 0.0 0.0 0.00 0.01 0.01 92 1026.9
20181219042600 52 288 0.0 0.0 0.00 0.01 0.01 92 1026.9
20181219041100 52 288 0.0 0.0 0.00 0.01 0.01 92 1026.8
20181219040102 52 288 0.0 0.0 0.00 0.01 0.01 92 1026.8
20181219035100 52 288 0.0 0.0 0.00 0.01 0.01 92 1026.8
20181219033600 52 288 0.0 0.0 0.00 0.01 0.01 92 1026.8
20181219032601 52 288 0.0 0.0 0.00 0.01 0.01 91 1026.8
20181219032100 52 288 0.0 0.0 0.00 0.01 0.01 92 1026.8
20181219031600 52 288 0.0 0.0 0.00 0.01 0.01 91 1026.9
20181219031101 52 288 0.0 0.0 0.00 0.01 0.01 92 1026.9
20181219030100 51 288 0.0 0.0 0.00 0.01 0.01 92 1026.9
20181219025600 51 288 0.0 0.0 0.00 0.01 0.01 92 1026.9
20181219025102 51 288 0.0 0.0 0.00 0.01 0.01 91 1026.9
20181219024601 51 288 0.0 0.0 0.00 0.01 0.01 91 1026.9
20181219024100 51 288 0.0 0.0 0.00 0.01 0.01 91 1026.9
20181219023100 51 288 0.0 0.0 0.00 0.01 0.01 92 1026.6
20181219022601 51 288 0.0 0.0 0.00 0.01 0.01 92 1026.6
20181219022100 51 288 0.0 0.0 0.00 0.01 0.01 90 1026.6
20181219021600 51 288 0.0 0.0 0.00 0.01 0.01 90 1026.5
20181219020101 51 288 0.0 0.0 0.00 0.01 0.01 89 1026.3
20181219015601 52 288 0.0 0.0 0.00 0.01 0.01 89 1026.3
20181219015100 52 288 0.0 0.0 0.00 0.01 0.01 89 1026.3
20181219014102 53 288 0.0 0.0 0.00 0.01 0.01 88 1026.1
20181219013600 53 288 0.0 0.0 0.00 0.01 0.01 88 1026.1
20181219013101 53 288 0.0 0.0 0.00 0.01 0.01 88 1026.0
20181219012600 53 288 0.0 0.0 0.00 0.01 0.01 87 1025.9
20181219012102 54 288 0.0 0.0 0.00 0.01 0.01 86 1025.9
20181219011100 55 288 0.0 0.0 0.00 0.01 0.01 86 1025.8
20181219010602 55 288 0.0 0.0 0.00 0.01 0.01 85 1025.8
20181219010100 55 288 0.0 0.0 0.00 0.01 0.01 85 1025.8
20181219004601 57 288 0.0 0.0 0.00 0.01 0.01 83 1025.9
20181219004100 57 288 0.0 0.0 0.00 0.01 0.01 81 1025.9
20181219003601 57 288 0.0 0.0 0.00 0.01 0.01 80 1025.9
20181219003100 58 288 0.0 0.0 0.00 0.01 0.01 79 1025.9
20181219002600 58 288 0.0 0.0 0.00 0.01 0.01 79 1025.9
20181219002101 58 288 0.0 0.0 0.00 0.01 0.01 78 1026.0
20181219001600 59 288 0.0 1.0 0.00 0.01 0.01 77 1026.0
20181219001100 59 302 0.0 1.0 0.00 0.01 0.01 77 1026.0
20181219000601 59 300 0.0 0.0 0.00 0.01 0.01 76 1026.1
20181219000101 60 311 0.0 1.0 0.00 0.01 0.01 76 1026.1
20181218235100 60 302 0.0 0.0 0.00 0.01 0.01 74 1026.1
20181218234602 60 314 0.0 0.0 0.00 0.01 0.01 73 1026.2
20181218234100 60 315 0.0 0.0 0.00 0.01 0.01 73 1026.2
20181218233101 60 311 0.0 0.0 0.00 0.01 0.01 73 1026.2
20181218232600 60 311 0.0 1.0 0.00 0.01 0.01 73 1026.2
20181218232101 60 307 0.0 0.0 0.00 0.01 0.01 73 1026.1
20181218231601 60 302 0.0 1.0 0.00 0.01 0.01 74 1026.1
20181218231101 60 281 0.0 0.0 0.00 0.01 0.01 73 1026.1
20181218230601 60 311 0.0 0.0 0.00 0.01 0.01 73 1026.1
20181218230101 60 317 0.0 1.0 0.00 0.01 0.01 73 1026.2
20181218225601 60 339 0.0 0.0 0.00 0.01 0.01 73 1026.1
20181218225100 60 313 0.0 0.0 0.00 0.01 0.01 74 1026.1
20181218224601 60 308 0.0 0.0 0.00 0.01 0.01 73 1026.1
20181218223601 60 284 0.0 0.0 0.00 0.01 0.01 73 1026.0
20181218222601 61 6 0.0 0.0 0.00 0.01 0.01 72 1026.0
20181218222100 61 335 0.0 0.0 0.00 0.01 0.01 72 1026.1
20181218221102 61 322 0.0 2.0 0.00 0.01 0.01 71 1026.1
20181218220600 61 329 0.0 2.0 0.00 0.01 0.01 70 1026.1
20181218220100 61 308 1.0 3.0 0.00 0.01 0.01 70 1026.1
20181218215601 61 311 1.0 3.0 0.00 0.01 0.01 70 1026.1
20181218214600 62 320 2.0 3.0 0.00 0.01 0.01 70 1026.2
20181218214100 62 311 1.0 2.0 0.00 0.01 0.01 70 1026.2
20181218213100 62 6 0.0 2.0 0.00 0.01 0.01 72 1026.3
20181218212100 62 145 0.0 1.0 0.00 0.01 0.01 72 1026.4
20181218211601 61 83 0.0 1.0 0.00 0.01 0.01 73 1026.4
20181218211100 60 10 0.0 0.0 0.00 0.01 0.01 74 1026.4
20181218210100 61 311 0.0 2.0 0.00 0.01 0.01 72 1026.4
20181218204600 61 291 0.0 2.0 0.00 0.01 0.01 71 1026.5
20181218204100 61 179 1.0 3.0 0.00 0.01 0.01 72 1026.4
20181218203602 61 123 0.0 3.0 0.00 0.01 0.01 74 1026.5
20181218202600 61 268 0.0 2.0 0.00 0.01 0.01 72 1026.6
20181218202102 61 179 1.0 3.0 0.00 0.01 0.01 74 1026.8
20181218200602 60 187 1.0 3.0 0.00 0.01 0.01 74 1026.9
20181218200101 61 193 1.0 3.0 0.00 0.01 0.01 75 1026.9
20181218195600 60 164 0.0 2.0 0.00 0.01 0.01 75 1026.9
20181218195100 60 78 0.0 2.0 0.00 0.01 0.01 76 1026.9
20181218194600 60 112 1.0 3.0 0.00 0.01 0.01 77 1027.0
20181218194100 60 103 0.0 3.0 0.00 0.01 0.01 77 1027.1
20181218193601 60 166 1.0 3.0 0.00 0.01 0.01 78 1027.1
20181218193100 60 131 1.0 2.0 0.00 0.01 0.01 77 1027.2
20181218192601 60 168 1.0 2.0 0.00 0.01 0.01 78 1027.4
20181218192100 59 164 1.0 5.0 0.00 0.01 0.01 79 1027.5
20181218191601 59 188 1.0 3.0 0.00 0.01 0.01 79 1027.6
20181218190601 58 158 0.0 2.0 0.00 0.01 0.01 81 1027.8
20181218190101 58 252 0.0 3.0 0.00 0.01 0.01 81 1027.9
20181218185600 58 149 0.0 2.0 0.00 0.01 0.01 83 1027.9
20181218184600 57 170 1.0 2.0 0.00 0.01 0.01 84 1027.9
20181218183600 56 128 0.0 2.0 0.00 0.01 0.01 86 1028.0
20181218183101 56 178 1.0 2.0 0.00 0.01 0.01 87 1028.1
20181218182600 56 183 1.0 2.0 0.00 0.01 0.01 88 1028.1
20181218181600 55 155 0.0 1.0 0.00 0.01 0.01 90 1028.1
20181218181100 55 187 0.0 1.0 0.00 0.01 0.01 91 1028.2
20181218180101 54 130 0.0 1.0 0.00 0.01 0.01 95 1028.1
20181218175600 54 124 0.0 1.0 0.00 0.01 0.01 95 1028.1
20181218175101 53 144 0.0 1.0 0.00 0.01 0.01 96 1028.1
20181218174601 53 142 0.0 1.0 0.00 0.01 0.01 97 1028.1
20181218174100 53 141 0.0 1.0 0.00 0.01 0.01 97 1027.9
20181218173600 52 146 0.0 1.0 0.00 0.01 0.01 97 1028.0
20181218173100 52 184 0.0 1.0 0.00 0.01 0.01 97 1028.0
20181218172600 52 171 0.0 2.0 0.00 0.01 0.01 97 1027.9
20181218171601 51 113 0.0 1.0 0.00 0.01 0.01 97 1027.8
20181218171101 51 116 0.0 1.0 0.00 0.01 0.01 97 1027.7
20181218170600 51 138 0.0 1.0 0.00 0.01 0.01 97 1027.7
20181218165101 51 138 0.0 0.0 0.00 0.01 0.01 97 1027.6
20181218164601 51 138 0.0 1.0 0.00 0.01 0.01 97 1027.6
20181218163600 50 169 0.0 1.0 0.00 0.01 0.01 97 1027.4
20181218162601 50 153 0.0 0.0 0.00 0.01 0.01 97 1027.4
20181218162101 50 153 0.0 1.0 0.01 0.01 0.01 97 1027.3
20181218161601 50 125 0.0 0.0 0.01 0.01 0.01 97 1027.3
20181218161101 50 155 0.0 0.0 0.01 0.02 0.01 97 1027.1
20181218160101 49 170 0.0 0.0 0.01 0.02 0.01 97 1027.1
20181218155601 49 170 0.0 0.0 0.01 0.03 0.01 97 1027.2
20181218154600 49 170 0.0 0.0 0.01 0.03 0.01 97 1027.2
20181218154101 49 170 0.0 0.0 0.01 0.03 0.01 97 1027.0
20181218153101 49 170 0.0 0.0 0.01 0.03 0.01 97 1026.9
20181218152100 49 170 0.0 0.0 0.00 0.02 0.00 97 1026.7
20181218151600 49 170 0.0 0.0 0.00 0.02 0.00 97 1026.6
20181218151100 48 170 0.0 0.0 0.00 0.02 0.00 97 1026.5
20181218150101 48 156 0.0 1.0 0.00 0.02 0.00 97 1026.2
20181218145600 48 155 0.0 0.0 0.00 0.02 0.00 97 1026.2
20181218144601 49 146 0.0 1.0 0.00 0.02 0.00 97 1026.3
20181218144101 49 146 0.0 0.0 0.00 0.02 0.00 97 1026.3
20181218143600 49 146 0.0 0.0 0.00 0.02 0.00 97 1026.2
20181218143100 49 146 0.0 0.0 0.00 0.02 0.00 97 1026.2
20181218142100 49 146 0.0 0.0 0.00 0.02 0.00 97 1026.1
20181218141600 49 146 0.0 0.0 0.00 0.02 0.00 97 1026.2
20181218140601 49 146 0.0 0.0 0.00 0.02 0.00 97 1026.3